Change the Weather History Date:

Friday, October 26, 2012

  Actual Average (KFAR) Record (KFAR)
Temperature  
Mean Temperature 36 °F 41 °F  
Max Temperature 39 °F 51 °F 79 °F (1989)
Min Temperature 33 °F 31 °F -4 °F (1919)
Degree Days  
Heating Degree Days 29 24  
Month to date heating degree days 478  
Since 1 July heating degree days 748  
Cooling Degree Days 0 0  
Month to date cooling degree days 0  
Year to date cooling degree days 548  
Moisture  
Dew Point 20 °F    
Average Humidity 54    
Maximum Humidity 75    
Minimum Humidity 28    
Precipitation  
Precipitation 0.00 in 0.06 in 1.21 in (2010)
Month to date precipitation 1.91  
Year to date precipitation 20.54  
Snow  
Snow 0.00 in 0.00 in 1.40 in (2008)
Month to date snowfall 0.4  
Since 1 July snowfall 0.4  
Since 1 September snowfall 0.4  
Snow Depth -    
Sea Level Pressure  
Sea Level Pressure 30.27 in    
Wind  
Wind Speed 17 mph (WNW)    
Max Wind Speed 26 mph    
Max Gust Speed 40 mph    
Visibility 10 miles    
Events      
T = Trace of Precipitation, MM = Missing Value Source: NWS Daily Summary

Daily Weather History Graph

Daily Weather History Graph

Search for Another Location

Airport or City:

Trip Planner

Search our weather history database for the weather conditions in past years. The results will help you decide how hot, cold, wet, or windy it might be!

Date:

Astronomy

Oct. 26, 2012 Rise Set
Actual Time 8:00 AM CDT 6:19 PM CDT
Civil Twilight 7:29 AM CDT 6:50 PM CDT
Nautical Twilight 6:54 AM CDT 7:26 PM CDT
Astronomical Twilight 6:18 AM CDT 8:01 PM CDT
Moon 4:43 PM CDT (10/26) 4:49 AM CDT (10/26)
Length of Visible Light 11h 21m
Length of Day
10h 18m
Waxing Gibbous, 91% of the Moon is Illuminated
Oct 26
Waxing Gibbous
Oct 29
Full
Nov 6
Last Quarter
Nov 13
New
Nov 20
First Quarter

Hourly Weather History & Observations

Time (CDT) Temp. Windchill Dew Point Humidity Pressure Visibility Wind Dir Wind Speed Gust Speed Precip Events Conditions
12:15 AM 35.6 °F 25.2 °F 28.4 °F 75% 30.15 in 10.0 mi WNW 18.4 mph 25.3 mph N/A   Overcast
12:35 AM 35.6 °F 25.5 °F 28.4 °F 75% 30.16 in 10.0 mi WNW 17.3 mph 26.5 mph N/A   Overcast
12:54 AM 35.6 °F 24.8 °F 28.4 °F 75% 30.16 in 10.0 mi WNW 19.6 mph 23.0 mph N/A   Overcast
1:15 AM 35.6 °F 25.2 °F 28.4 °F 75% 30.17 in 10.0 mi WNW 18.4 mph 24.2 mph N/A   Overcast
1:35 AM 35.6 °F 25.5 °F 28.4 °F 75% 30.17 in 10.0 mi WNW 17.3 mph 24.2 mph N/A   Overcast
1:54 AM 35.6 °F 24.8 °F 28.4 °F 75% 30.18 in 10.0 mi WNW 19.6 mph 25.3 mph N/A   Overcast
2:15 AM 35.6 °F 24.5 °F 28.4 °F 75% 30.18 in 10.0 mi WNW 20.7 mph 24.2 mph N/A   Overcast
2:35 AM 35.6 °F 24.8 °F 26.6 °F 70% 30.19 in 10.0 mi WNW 19.6 mph 24.2 mph N/A   Overcast
2:54 AM 35.6 °F 26.6 °F 28.4 °F 75% 30.19 in 10.0 mi WNW 13.8 mph - N/A   Overcast
3:15 AM 35.6 °F 26.2 °F 28.4 °F 75% 30.20 in 10.0 mi WNW 15.0 mph - N/A   Overcast
3:34 AM 35.6 °F 25.9 °F 26.6 °F 70% 30.20 in 10.0 mi WNW 16.1 mph 20.7 mph N/A   Overcast
3:55 AM 35.6 °F 24.5 °F 24.8 °F 65% 30.20 in 10.0 mi WNW 20.7 mph 25.3 mph N/A   Overcast
4:15 AM 35.6 °F 24.8 °F 24.8 °F 65% 30.21 in 10.0 mi WNW 19.6 mph 24.2 mph N/A   Overcast
4:34 AM 35.6 °F 25.5 °F 24.8 °F 65% 30.22 in 10.0 mi WNW 17.3 mph - N/A   Overcast
4:55 AM 35.6 °F 25.2 °F 24.8 °F 65% 30.22 in 10.0 mi WNW 18.4 mph 21.9 mph N/A   Overcast
5:15 AM 35.6 °F 26.2 °F 24.8 °F 65% 30.23 in 10.0 mi WNW 15.0 mph 19.6 mph N/A   Overcast
5:34 AM 35.6 °F 25.5 °F 24.8 °F 65% 30.23 in 10.0 mi WNW 17.3 mph 21.9 mph N/A   Overcast
5:55 AM 35.6 °F 25.2 °F 24.8 °F 65% 30.24 in 10.0 mi WNW 18.4 mph - N/A   Overcast
6:14 AM 35.6 °F 26.2 °F 24.8 °F 65% 30.24 in 10.0 mi WNW 15.0 mph - N/A   Overcast
6:35 AM 35.6 °F 26.6 °F 23.0 °F 60% 30.25 in 10.0 mi WNW 13.8 mph 21.9 mph N/A   Overcast
6:55 AM 35.6 °F 24.2 °F 19.4 °F 52% 30.26 in 10.0 mi WNW 21.9 mph 29.9 mph N/A   Overcast
7:14 AM 35.6 °F 24.0 °F 17.6 °F 48% 30.26 in 10.0 mi WNW 23.0 mph 34.5 mph N/A   Overcast
7:55 AM 35.6 °F 26.2 °F 19.4 °F 52% 30.27 in 10.0 mi WNW 15.0 mph - N/A   Overcast
8:35 AM 35.6 °F 24.8 °F 19.4 °F 52% 30.28 in 10.0 mi WNW 19.6 mph - N/A   Overcast
8:55 AM 35.6 °F 24.8 °F 21.2 °F 56% 30.29 in 10.0 mi WNW 19.6 mph 24.2 mph N/A   Overcast
9:14 AM 35.6 °F 25.5 °F 19.4 °F 52% 30.29 in 10.0 mi WNW 17.3 mph - N/A   Overcast
9:35 AM 35.6 °F 25.2 °F 17.6 °F 48% 30.30 in 10.0 mi WNW 18.4 mph 25.3 mph N/A   Scattered Clouds
10:15 AM 35.6 °F 23.7 °F 17.6 °F 48% 30.30 in 10.0 mi WNW 24.2 mph 33.4 mph N/A   Clear
10:35 AM 35.6 °F 24.0 °F 19.4 °F 52% 30.30 in 10.0 mi WNW 23.0 mph 33.4 mph N/A   Clear
10:54 AM 35.6 °F 23.2 °F 17.6 °F 48% 30.30 in 10.0 mi WNW 26.5 mph 32.2 mph N/A   Clear
11:15 AM 37.4 °F 25.9 °F 15.8 °F 41% 30.30 in 10.0 mi WNW 25.3 mph 40.3 mph N/A   Clear
11:35 AM 37.4 °F 25.6 °F 15.8 °F 41% 30.30 in 10.0 mi WNW 26.5 mph 33.4 mph N/A   Clear
11:55 AM 37.4 °F 25.6 °F 15.8 °F 41% 30.31 in 10.0 mi NW 26.5 mph 34.5 mph N/A   Clear
12:14 PM 37.4 °F 25.6 °F 15.8 °F 41% 30.31 in 10.0 mi WNW 26.5 mph 31.1 mph N/A   Scattered Clouds
12:35 PM 37.4 °F 26.1 °F 14.0 °F 38% 30.31 in 10.0 mi West 24.2 mph - N/A   Scattered Clouds
12:55 PM 37.4 °F 26.4 °F 14.0 °F 38% 30.31 in 10.0 mi WNW 23.0 mph 27.6 mph N/A   Scattered Clouds
1:14 PM 37.4 °F 27.2 °F 12.2 °F 36% 30.31 in 10.0 mi WNW 19.6 mph 28.8 mph N/A   Scattered Clouds
1:35 PM 39.2 °F 30.5 °F 15.8 °F 39% 30.30 in 10.0 mi West 16.1 mph 32.2 mph N/A   Scattered Clouds
1:54 PM 39.2 °F 29.6 °F 12.2 °F 33% 30.29 in 10.0 mi WNW 19.6 mph 25.3 mph N/A   Mostly Cloudy
2:15 PM 39.2 °F 29.3 °F 12.2 °F 33% 30.29 in 10.0 mi NW 20.7 mph 28.8 mph N/A   Mostly Cloudy
2:35 PM 39.2 °F 29.6 °F 12.2 °F 33% 30.29 in 10.0 mi NW 19.6 mph 25.3 mph N/A   Mostly Cloudy
2:54 PM 39.2 °F 28.7 °F 8.6 °F 28% 30.29 in 10.0 mi WNW 23.0 mph - N/A   Scattered Clouds
3:15 PM 39.2 °F 28.3 °F 8.6 °F 28% 30.28 in 10.0 mi WNW 25.3 mph 34.5 mph N/A   Scattered Clouds
3:35 PM 39.2 °F 29.6 °F 10.4 °F 31% 30.29 in 10.0 mi NW 19.6 mph - N/A   Mostly Cloudy
3:54 PM 37.4 °F 27.8 °F 10.4 °F 33% 30.29 in 10.0 mi NW 17.3 mph 26.5 mph N/A   Overcast
4:15 PM 37.4 °F 29.3 °F 12.2 °F 36% 30.29 in 10.0 mi NW 12.7 mph - N/A   Overcast
4:34 PM 37.4 °F 30.8 °F 12.2 °F 36% 30.30 in 10.0 mi WNW 9.2 mph - N/A   Overcast
4:55 PM 37.4 °F 29.8 °F 12.2 °F 36% 30.30 in 10.0 mi WNW 11.5 mph - N/A   Overcast
5:15 PM 37.4 °F 26.9 °F 8.6 °F 30% 30.30 in 10.0 mi WNW 20.7 mph 26.5 mph N/A   Overcast
5:34 PM 37.4 °F 29.3 °F 10.4 °F 33% 30.30 in 10.0 mi WNW 12.7 mph - N/A   Overcast
5:55 PM 37.4 °F 29.3 °F 12.2 °F 36% 30.30 in 10.0 mi WNW 12.7 mph - N/A   Overcast
6:15 PM 37.4 °F 30.8 °F 15.8 °F 41% 30.30 in 10.0 mi WNW 9.2 mph - N/A   Overcast
6:34 PM 37.4 °F 30.8 °F 15.8 °F 41% 30.30 in 10.0 mi WNW 9.2 mph - N/A   Overcast
6:55 PM 35.6 °F 29.9 °F 17.6 °F 48% 30.31 in 10.0 mi NW 6.9 mph - N/A   Overcast
7:15 PM 35.6 °F 30.7 °F 19.4 °F 52% 30.31 in 10.0 mi NW 5.8 mph - N/A   Overcast
7:34 PM 35.6 °F 29.2 °F 17.6 °F 48% 30.30 in 10.0 mi West 8.1 mph - N/A   Overcast
7:55 PM 35.6 °F 28.6 °F 17.6 °F 48% 30.30 in 10.0 mi West 9.2 mph - N/A   Overcast
8:15 PM 35.6 °F 29.9 °F 19.4 °F 52% 30.30 in 10.0 mi West 6.9 mph - N/A   Overcast
8:34 PM 35.6 °F 30.7 °F 21.2 °F 56% 30.30 in 10.0 mi WSW 5.8 mph - N/A   Overcast
8:55 PM 35.6 °F 29.2 °F 21.2 °F 56% 30.30 in 10.0 mi West 8.1 mph - N/A   Overcast
9:15 PM 35.6 °F 30.7 °F 21.2 °F 56% 30.30 in 10.0 mi WSW 5.8 mph - N/A   Overcast
9:34 PM 33.8 °F 28.6 °F 24.8 °F 70% 30.30 in 10.0 mi WSW 5.8 mph - N/A   Overcast
9:55 PM 35.6 °F 29.2 °F 24.8 °F 65% 30.30 in 10.0 mi West 8.1 mph - N/A   Overcast
10:15 PM 33.8 °F 28.6 °F 24.8 °F 70% 30.30 in 10.0 mi WSW 5.8 mph - N/A   Overcast
10:35 PM 33.8 °F 27.7 °F 24.8 °F 70% 30.30 in 10.0 mi West 6.9 mph - N/A   Overcast
11:15 PM 33.8 °F 27.7 °F 26.6 °F 75% 30.29 in 10.0 mi West 6.9 mph - N/A   Overcast
11:35 PM 33.8 °F 27.7 °F 26.6 °F 75% 30.29 in 10.0 mi West 6.9 mph - N/A   Overcast
11:54 PM 33.8 °F 28.6 °F 26.6 °F 75% 30.29 in 10.0 mi WSW 5.8 mph - N/A   Overcast